This is the latest recevied weather packets stored in our database for station/object WE1C. If no packets are shown the sender has not sent any weather packets the latest 10 day(s).
| Time | Temp. | Humidity | Pressure | Rain* | Wind** | Luminosity | Snow |
|---|---|---|---|---|---|---|---|
| 1777564995 | 8.33° C | 99% | 1035.9 hPa | 0 mm | - | 161 W/m² | - |
| 1777564691 | 8.33° C | 99% | 1035.9 hPa | 0 mm | - | 153 W/m² | - |
| 1777564386 | 8.33° C | 99% | 1035.8 hPa | 1.78 mm | - | 144 W/m² | - |
| 1777564083 | 8.33° C | 99% | 1035.7 hPa | 1.78 mm | - | 157 W/m² | - |
| 1777563779 | 8.33° C | 99% | 1035.9 hPa | 0 mm | - | 296 W/m² | - |
| 1777563475 | 8.33° C | 99% | 1035.7 hPa | 0 mm | - | 205 W/m² | - |
| 1777563175 | 8.33° C | 99% | 1036.1 hPa | 0 mm | - | 162 W/m² | - |
| 1777562871 | 8.33° C | 99% | 1036.1 hPa | 0 mm | - | 133 W/m² | - |
| 1777562568 | 7.78° C | 99% | 1036.1 hPa | 0 mm | - | 119 W/m² | - |
| 1777562266 | 7.78° C | 99% | 1035.9 hPa | 0 mm | - | 135 W/m² | - |
| 1777561963 | 7.78° C | 99% | 1036.1 hPa | 0 mm | - | 108 W/m² | - |
| 1777561661 | 7.78° C | 99% | 1036.3 hPa | 1.27 mm | - | 131 W/m² | - |
| 1777561356 | 7.78° C | 99% | 1036 hPa | 1.27 mm | - | 168 W/m² | - |
| 1777561051 | 7.78° C | 99% | 1036.1 hPa | 1.27 mm | - | 197 W/m² | - |
| 1777560747 | 7.78° C | 99% | 1036 hPa | 2.29 mm | - | 167 W/m² | - |
| 1777560444 | 7.78° C | 99% | 1036.1 hPa | 1.27 mm | - | 154 W/m² | - |
| 1777560142 | 7.78° C | 99% | 1036.2 hPa | 1.27 mm | - | 166 W/m² | - |
| 1777559838 | 7.78° C | 99% | 1036.2 hPa | 1.27 mm | - | 112 W/m² | - |
| 1777559534 | 7.78° C | 99% | 1036.3 hPa | 0 mm | - | 95 W/m² | - |
| 1777559232 | 7.78° C | 99% | 1036.3 hPa | 1.78 mm | - | 83 W/m² | - |
| 1777558932 | 7.22° C | 99% | 1036.5 hPa | 1.78 mm | - | 121 W/m² | - |
| 1777558628 | 7.22° C | 99% | 1036.1 hPa | 2.29 mm | - | 101 W/m² | - |
| 1777558324 | 7.22° C | 99% | 1036.1 hPa | 2.29 mm | - | 75 W/m² | - |
| 1777558021 | 7.22° C | 99% | 1035.9 hPa | 2.29 mm | - | 65 W/m² | - |
| 1777557717 | 7.22° C | 99% | 1036.5 hPa | 3.05 mm | - | 47 W/m² | - |
* Rain latest hour (hover to see other rain measurements)
** Current wind speed in m/s (hover to see current wind gust speed)